Time,TemperatureF,DewpointF,PressureIn,WindDirection,WindDirectionDegrees,WindSpeedMPH,WindSpeedGustMPH,Humidity,HourlyPrecipIn,Conditions,Clouds,dailyrainin,SolarRadiationWatts/m^2,SoftwareType,DateUTC
2013-02-07 00:02:00,18.0,15.0,-100.00,ESE,113,3.0,6.0,89,0.00,,,0.00,1.000000,,2013-02-07 06:02:00,
2013-02-07 00:11:00,18.0,15.0,-100.00,ESE,113,3.0,6.0,89,0.00,,,0.00,1.000000,,2013-02-07 06:11:00,
2013-02-07 00:22:00,18.0,15.0,-100.00,ESE,113,3.0,6.0,89,0.00,,,0.00,1.000000,,2013-02-07 06:22:00,
2013-02-07 00:32:00,18.0,15.0,-100.00,ESE,113,3.0,6.0,89,0.00,,,0.00,1.000000,,2013-02-07 06:32:00,
2013-02-07 00:52:00,18.0,15.0,-100.00,East,98,2.0,5.0,89,0.00,,,0.00,1.000000,,2013-02-07 06:52:00,
2013-02-07 01:01:00,18.0,15.0,-100.00,East,98,2.0,5.0,89,0.00,,,0.00,1.000000,,2013-02-07 07:01:00,
2013-02-07 01:11:00,18.0,15.0,-100.00,East,98,2.0,5.0,89,0.00,,,0.00,1.000000,,2013-02-07 07:11:00,
2013-02-07 01:22:00,18.0,15.0,-100.00,East,98,2.0,5.0,89,0.00,,,0.00,1.000000,,2013-02-07 07:22:00,
2013-02-07 01:32:00,18.0,15.0,-100.00,East,98,2.0,5.0,89,0.00,,,0.00,1.000000,,2013-02-07 07:32:00,
2013-02-07 01:52:00,18.0,15.0,-100.00,East,92,3.0,7.0,88,0.00,,,0.00,1.000000,,2013-02-07 07:52:00,
2013-02-07 02:01:00,18.0,15.0,-100.00,East,92,3.0,7.0,88,0.00,,,0.00,1.000000,,2013-02-07 08:01:00,
2013-02-07 02:11:00,18.0,15.0,-100.00,East,92,3.0,7.0,88,0.00,,,0.00,1.000000,,2013-02-07 08:11:00,
2013-02-07 02:21:00,18.0,15.0,-100.00,East,92,3.0,7.0,88,0.00,,,0.00,1.000000,,2013-02-07 08:21:00,
2013-02-07 02:32:00,18.0,15.0,-100.00,East,92,3.0,7.0,88,0.00,,,0.00,1.000000,,2013-02-07 08:32:00,
2013-02-07 02:52:00,17.0,14.0,-100.00,ESE,105,3.0,7.0,88,0.00,,,0.00,1.000000,,2013-02-07 08:52:00,
2013-02-07 03:02:00,17.0,14.0,-100.00,ESE,105,3.0,7.0,88,0.00,,,0.00,1.000000,,2013-02-07 09:02:00,
2013-02-07 03:11:00,17.0,14.0,-100.00,ESE,105,3.0,7.0,88,0.00,,,0.00,1.000000,,2013-02-07 09:11:00,
2013-02-07 03:21:00,17.0,14.0,-100.00,ESE,105,3.0,7.0,88,0.00,,,0.00,1.000000,,2013-02-07 09:21:00,
2013-02-07 03:32:00,17.0,14.0,-100.00,ESE,105,3.0,7.0,88,0.00,,,0.00,1.000000,,2013-02-07 09:32:00,
2013-02-07 03:52:00,17.0,14.0,-100.00,East,90,3.0,8.0,88,0.00,,,-99.99,1.000000,,2013-02-07 09:52:00,
2013-02-07 04:02:00,17.0,14.0,-100.00,East,90,3.0,8.0,88,0.00,,,-99.99,1.000000,,2013-02-07 10:02:00,
2013-02-07 04:11:00,17.0,14.0,-100.00,East,90,3.0,8.0,88,0.00,,,-99.99,1.000000,,2013-02-07 10:11:00,
2013-02-07 04:22:00,17.0,14.0,-100.00,East,90,3.0,8.0,88,0.00,,,-99.99,1.000000,,2013-02-07 10:22:00,
2013-02-07 04:32:00,17.0,14.0,-100.00,East,90,3.0,8.0,88,0.00,,,-99.99,1.000000,,2013-02-07 10:32:00,
2013-02-07 04:52:00,17.0,14.0,-100.00,East,85,3.0,6.0,88,0.00,,,0.00,1.000000,,2013-02-07 10:52:00,
2013-02-07 05:01:00,17.0,14.0,-100.00,East,85,3.0,6.0,88,0.00,,,0.00,1.000000,,2013-02-07 11:01:00,
2013-02-07 05:11:00,17.0,14.0,-100.00,East,85,3.0,6.0,88,0.00,,,0.00,1.000000,,2013-02-07 11:11:00,
2013-02-07 05:22:00,17.0,14.0,-100.00,East,85,3.0,6.0,88,0.00,,,0.00,1.000000,,2013-02-07 11:22:00,
2013-02-07 05:32:00,17.0,14.0,-100.00,East,85,3.0,6.0,88,0.00,,,0.00,1.000000,,2013-02-07 11:32:00,
2013-02-07 05:53:00,17.0,14.0,-100.00,ENE,69,3.0,5.0,89,0.00,,,0.00,1.000000,,2013-02-07 11:53:00,
2013-02-07 06:02:00,17.0,14.0,-100.00,ENE,69,3.0,5.0,89,0.00,,,0.00,1.000000,,2013-02-07 12:02:00,
2013-02-07 06:11:00,17.0,14.0,-100.00,ENE,69,3.0,5.0,89,0.00,,,0.00,1.000000,,2013-02-07 12:11:00,
2013-02-07 06:22:00,17.0,14.0,-100.00,ENE,69,3.0,5.0,89,0.00,,,0.00,1.000000,,2013-02-07 12:22:00,
2013-02-07 06:32:00,17.0,14.0,-100.00,ENE,69,3.0,5.0,89,0.00,,,0.00,1.000000,,2013-02-07 12:32:00,
2013-02-07 07:03:00,18.0,15.0,-100.00,ENE,77,3.0,6.0,89,0.00,,,0.00,1.000000,,2013-02-07 13:03:00,
2013-02-07 07:12:00,18.0,15.0,-100.00,ENE,77,3.0,6.0,89,0.00,,,0.00,1.000000,,2013-02-07 13:12:00,
2013-02-07 07:22:00,18.0,15.0,-100.00,ENE,77,3.0,6.0,89,0.00,,,0.00,1.000000,,2013-02-07 13:22:00,
2013-02-07 07:32:00,18.0,15.0,-100.00,ENE,77,3.0,6.0,89,0.00,,,0.00,1.000000,,2013-02-07 13:32:00,
2013-02-07 08:01:00,18.0,16.0,-100.00,East,95,3.0,7.0,90,0.00,,,0.00,1.000000,,2013-02-07 14:01:00,
2013-02-07 08:11:00,18.0,16.0,-100.00,East,95,3.0,7.0,90,0.00,,,0.00,1.000000,,2013-02-07 14:11:00,
2013-02-07 08:22:00,18.0,16.0,-100.00,East,95,3.0,7.0,90,0.00,,,0.00,1.000000,,2013-02-07 14:22:00,
2013-02-07 08:32:00,18.0,16.0,-100.00,East,95,3.0,7.0,90,0.00,,,0.00,1.000000,,2013-02-07 14:32:00,
2013-02-07 09:02:00,18.0,15.0,-100.00,ENE,71,5.0,9.0,89,0.00,,,0.00,6.000000,,2013-02-07 15:02:00,
2013-02-07 09:11:00,18.0,15.0,-100.00,ENE,71,5.0,9.0,89,0.00,,,0.00,6.000000,,2013-02-07 15:11:00,
2013-02-07 09:22:00,18.0,15.0,-100.00,ENE,71,5.0,9.0,89,0.00,,,0.00,6.000000,,2013-02-07 15:22:00,
2013-02-07 09:32:00,18.0,15.0,-100.00,ENE,71,5.0,9.0,89,0.00,,,0.00,6.000000,,2013-02-07 15:32:00,
2013-02-07 10:01:00,19.0,16.0,-100.00,ENE,68,5.0,8.0,88,0.00,,,0.00,11.000000,,2013-02-07 16:01:00,
2013-02-07 10:11:00,19.0,16.0,-100.00,ENE,68,5.0,8.0,88,0.00,,,0.00,11.000000,,2013-02-07 16:11:00,
2013-02-07 10:21:00,19.0,16.0,-100.00,ENE,68,5.0,8.0,88,0.00,,,0.00,11.000000,,2013-02-07 16:21:00,
2013-02-07 10:32:00,19.0,16.0,-100.00,ENE,68,5.0,8.0,88,0.00,,,0.00,11.000000,,2013-02-07 16:32:00,
2013-02-07 10:52:00,20.0,16.0,-100.00,ENE,68,5.0,11.0,86,0.00,,,0.00,21.000000,,2013-02-07 16:52:00,
2013-02-07 11:01:00,20.0,16.0,-100.00,ENE,68,5.0,11.0,86,0.00,,,0.00,21.000000,,2013-02-07 17:01:00,
2013-02-07 11:11:00,20.0,16.0,-100.00,ENE,68,5.0,11.0,86,0.00,,,0.00,21.000000,,2013-02-07 17:11:00,
2013-02-07 11:21:00,20.0,16.0,-100.00,ENE,68,5.0,11.0,86,0.00,,,0.00,21.000000,,2013-02-07 17:21:00,
2013-02-07 11:32:00,20.0,16.0,-100.00,ENE,68,5.0,11.0,86,0.00,,,0.00,21.000000,,2013-02-07 17:32:00,
2013-02-07 11:52:00,21.0,17.0,-100.00,ENE,77,6.0,9.0,85,0.00,,,0.00,30.000000,,2013-02-07 17:52:00,
2013-02-07 12:02:00,21.0,17.0,-100.00,ENE,77,6.0,9.0,85,0.00,,,0.00,30.000000,,2013-02-07 18:02:00,
2013-02-07 12:11:00,21.0,17.0,-100.00,ENE,77,6.0,9.0,85,0.00,,,0.00,30.000000,,2013-02-07 18:11:00,
2013-02-07 12:23:00,21.0,17.0,-100.00,ENE,77,6.0,9.0,85,0.00,,,0.00,30.000000,,2013-02-07 18:23:00,
2013-02-07 12:32:00,21.0,17.0,-100.00,ENE,77,6.0,9.0,85,0.00,,,0.00,30.000000,,2013-02-07 18:32:00,
2013-02-07 13:01:00,21.0,17.0,-100.00,NE,44,5.0,9.0,86,0.00,,,0.00,30.000000,,2013-02-07 19:01:00,
2013-02-07 13:11:00,21.0,17.0,-100.00,NE,44,5.0,9.0,86,0.00,,,0.00,30.000000,,2013-02-07 19:11:00,
2013-02-07 13:22:00,21.0,17.0,-100.00,NE,44,5.0,9.0,86,0.00,,,0.00,30.000000,,2013-02-07 19:22:00,
2013-02-07 13:32:00,21.0,17.0,-100.00,NE,44,5.0,9.0,86,0.00,,,0.00,30.000000,,2013-02-07 19:32:00,
2013-02-07 14:01:00,21.0,18.0,-100.00,NE,47,7.0,12.0,87,0.00,,,0.00,25.000000,,2013-02-07 20:01:00,
2013-02-07 14:11:00,21.0,18.0,-100.00,NE,47,7.0,12.0,87,0.00,,,0.00,25.000000,,2013-02-07 20:11:00,
2013-02-07 14:22:00,21.0,18.0,-100.00,NE,47,7.0,12.0,87,0.00,,,0.00,25.000000,,2013-02-07 20:22:00,
2013-02-07 14:31:00,21.0,18.0,-100.00,NE,47,7.0,12.0,87,0.00,,,0.00,25.000000,,2013-02-07 20:31:00,
2013-02-07 14:52:00,22.0,19.0,-100.00,ENE,63,8.0,13.0,87,0.00,,,0.00,19.000000,,2013-02-07 20:52:00,
2013-02-07 15:02:00,22.0,19.0,-100.00,ENE,63,8.0,13.0,87,0.00,,,0.00,19.000000,,2013-02-07 21:02:00,
2013-02-07 15:11:00,22.0,19.0,-100.00,ENE,63,8.0,13.0,87,0.00,,,0.00,19.000000,,2013-02-07 21:11:00,
2013-02-07 15:21:00,22.0,19.0,-100.00,ENE,63,8.0,13.0,87,0.00,,,0.00,19.000000,,2013-02-07 21:21:00,
2013-02-07 15:32:00,22.0,19.0,-100.00,ENE,63,8.0,13.0,87,0.00,,,0.00,19.000000,,2013-02-07 21:32:00,
2013-02-07 15:52:00,21.0,18.0,-100.00,NE,56,7.0,12.0,88,0.00,,,0.00,11.000000,,2013-02-07 21:52:00,
2013-02-07 16:02:00,21.0,18.0,-100.00,NE,56,7.0,12.0,88,0.00,,,0.00,11.000000,,2013-02-07 22:02:00,
2013-02-07 16:11:00,21.0,18.0,-100.00,NE,56,7.0,12.0,88,0.00,,,0.00,11.000000,,2013-02-07 22:11:00,
2013-02-07 16:21:00,21.0,18.0,-100.00,NE,56,7.0,12.0,88,0.00,,,0.00,11.000000,,2013-02-07 22:21:00,
2013-02-07 16:32:00,21.0,18.0,-100.00,NE,56,7.0,12.0,88,0.00,,,0.00,11.000000,,2013-02-07 22:32:00,
2013-02-07 17:01:00,21.0,18.0,-100.00,ENE,58,6.0,13.0,87,0.00,,,0.00,6.000000,,2013-02-07 23:01:00,
2013-02-07 17:11:00,21.0,18.0,-100.00,ENE,58,6.0,13.0,87,0.00,,,0.00,6.000000,,2013-02-07 23:11:00,
2013-02-07 17:21:00,21.0,18.0,-100.00,ENE,58,6.0,13.0,87,0.00,,,0.00,6.000000,,2013-02-07 23:21:00,
2013-02-07 17:32:00,21.0,18.0,-100.00,ENE,58,6.0,13.0,87,0.00,,,0.00,6.000000,,2013-02-07 23:32:00,
2013-02-07 18:01:00,20.0,16.0,-100.00,ENE,65,9.0,16.0,84,0.00,,,0.00,2.000000,,2013-02-08 00:01:00,
2013-02-07 18:11:00,20.0,16.0,-100.00,ENE,65,9.0,16.0,84,0.00,,,0.00,2.000000,,2013-02-08 00:11:00,
2013-02-07 18:21:00,20.0,16.0,-100.00,ENE,65,9.0,16.0,84,0.00,,,0.00,2.000000,,2013-02-08 00:21:00,
2013-02-07 18:32:00,20.0,16.0,-100.00,ENE,65,9.0,16.0,84,0.00,,,0.00,2.000000,,2013-02-08 00:32:00,
2013-02-07 19:52:00,18.0,13.0,-100.00,NE,51,8.0,15.0,82,0.00,,,0.00,1.000000,,2013-02-08 01:52:00,
2013-02-07 20:01:00,18.0,13.0,-100.00,NE,51,8.0,15.0,82,0.00,,,0.00,1.000000,,2013-02-08 02:01:00,
2013-02-07 20:11:00,18.0,13.0,-100.00,NE,51,8.0,15.0,82,0.00,,,0.00,1.000000,,2013-02-08 02:11:00,
2013-02-07 20:21:00,18.0,13.0,-100.00,NE,51,8.0,15.0,82,0.00,,,0.00,1.000000,,2013-02-08 02:21:00,
2013-02-07 20:32:00,18.0,13.0,-100.00,NE,51,8.0,15.0,82,0.00,,,0.00,1.000000,,2013-02-08 02:32:00,
2013-02-07 20:52:00,18.0,13.0,-100.00,ENE,57,8.0,14.0,82,0.00,,,0.00,1.000000,,2013-02-08 02:52:00,
2013-02-07 21:02:00,18.0,13.0,-100.00,ENE,57,8.0,14.0,82,0.00,,,0.00,1.000000,,2013-02-08 03:02:00,
2013-02-07 21:12:00,18.0,13.0,-100.00,ENE,57,8.0,14.0,82,0.00,,,0.00,1.000000,,2013-02-08 03:12:00,
2013-02-07 21:22:00,18.0,13.0,-100.00,ENE,57,8.0,14.0,82,0.00,,,0.00,1.000000,,2013-02-08 03:22:00,
2013-02-07 21:32:00,18.0,13.0,-100.00,ENE,57,8.0,14.0,82,0.00,,,0.00,1.000000,,2013-02-08 03:32:00,
2013-02-07 22:02:00,17.0,13.0,-100.00,NE,38,7.0,13.0,83,0.00,,,0.00,1.000000,,2013-02-08 04:02:00,
2013-02-07 22:11:00,17.0,13.0,-100.00,NE,38,7.0,13.0,83,0.00,,,0.00,1.000000,,2013-02-08 04:11:00,
2013-02-07 22:21:00,17.0,13.0,-100.00,NE,38,7.0,13.0,83,0.00,,,0.00,1.000000,,2013-02-08 04:21:00,
2013-02-07 22:32:00,17.0,13.0,-100.00,NE,38,7.0,13.0,83,0.00,,,0.00,1.000000,,2013-02-08 04:32:00,
2013-02-07 23:02:00,15.0,11.0,-100.00,NE,41,6.0,12.0,82,0.00,,,0.00,1.000000,,2013-02-08 05:02:00,
2013-02-07 23:11:00,15.0,11.0,-100.00,NE,41,6.0,12.0,82,0.00,,,0.00,1.000000,,2013-02-08 05:11:00,
2013-02-07 23:22:00,15.0,11.0,-100.00,NE,41,6.0,12.0,82,0.00,,,0.00,1.000000,,2013-02-08 05:22:00,
2013-02-07 23:32:00,15.0,11.0,-100.00,NE,41,6.0,12.0,82,0.00,,,0.00,1.000000,,2013-02-08 05:32:00,